User: anonymous   Login
Location: Bletchingley
(51.2333°N, 0.1000°W)
Time: 19:15:10
(UTC+00:00)
Language:

Cosmos 1842 - Orbit

View from above orbital plane
View from above orbital plane
View from above satellite
View from above satellite

Ground track
Ground track

The orbit data is extracted from the following two-line orbital elements,

1 17911U 87038A   20330.92186642 +.00000517 +00000-0 +28019-4 0  9998
2 17911 082.5247 042.5046 0010226 226.4558 133.5824 15.12383304831540
Epoch (UTC): 25 November 2020 22:07:29
Eccentricity: 0.0010226
inclination: 82.5247°
perigee height: 522 km
apogee height: 536 km
right ascension of ascending node: 42.5046°
argument of perigee: 226.4558°
revolutions per day: 15.12383304
mean anomaly at epoch: 133.5824°
orbit number at epoch: 83154

The dashed part of the orbit path shows where the satellite is in the earth's shadow,  

DLR